This is the latest recevied weather packets stored in our database for station/object DO1BDB-12. If no packets are shown the sender has not sent any weather packets the latest 1 day(s).
| Time | Temp. | Humidity | Pressure | Rain* | Wind** | Luminosity | Snow |
|---|---|---|---|---|---|---|---|
| 1778072045 | 12.22° C | 70% | 100.9 hPa | - | - | - | - |
| 1778071979 | 12.22° C | 71% | 100.9 hPa | - | - | - | - |
| 1778071716 | 12.22° C | 72% | 100.9 hPa | - | - | - | - |
| 1778071650 | 12.22° C | 71% | 100.9 hPa | - | - | - | - |
| 1778071453 | 12.22° C | 69% | 100.9 hPa | - | - | - | - |
| 1778071321 | 11.67° C | 70% | 100.9 hPa | - | - | - | - |
| 1778071255 | 11.67° C | 69% | 100.9 hPa | - | - | - | - |
| 1778070926 | 11.67° C | 69% | 100.9 hPa | - | - | - | - |
| 1778070860 | 11.67° C | 69% | 100.9 hPa | - | - | - | - |
| 1778070597 | 11.67° C | 68% | 100.9 hPa | - | - | - | - |
| 1778070465 | 11.67° C | 67% | 100.9 hPa | - | - | - | - |
| 1778070004 | 12.22° C | 70% | 100.9 hPa | - | - | - | - |
| 1778069675 | 11.67° C | 72% | 100.9 hPa | - | - | - | - |
| 1778069609 | 11.67° C | 73% | 100.9 hPa | - | - | - | - |
| 1778069543 | 12.22° C | 74% | 100.9 hPa | - | - | - | - |
| 1778069280 | 11.11° C | 77% | 100.9 hPa | - | - | - | - |
| 1778069214 | 12.22° C | 76% | 100.9 hPa | - | - | - | - |
| 1778069148 | 11.11° C | 76% | 100.9 hPa | - | - | - | - |
| 1778068819 | 12.22° C | 77% | 100.9 hPa | - | - | - | - |
| 1778068753 | 11.67° C | 76% | 100.9 hPa | - | - | - | - |
| 1778068424 | 12.22° C | 75% | 100.9 hPa | - | - | - | - |
| 1778068358 | 12.22° C | 75% | 100.9 hPa | - | - | - | - |
| 1778068226 | 12.78° C | 75% | 100.9 hPa | - | - | - | - |
| 1778068029 | 12.78° C | 74% | 100.9 hPa | - | - | - | - |
| 1778067963 | 12.78° C | 75% | 100.9 hPa | - | - | - | - |
* Rain since midnight (hover to see other rain measurements)
** Current wind speed in m/s (hover to see current wind gust speed)